• Join FlightAware (Why Join?)
  • Login
  • US Flag 
06:05AM EDT


 

Airport Tracker/Info


-or-


 

Live Flight TrackerFlight Track Log ✈ AWI3704 ✈ 19-May-2013 ✈ KALB - KPHL

Flight Track Log - Related Links

Times and Time Zones

All times are in EDT time to prevent confusion due to time zone crossing. See the AWI3704 flight status page for this flight to view local times or setup timezone preferences in your user account.

Time Position Orientation Groundspeed Altitude Reporting Facility
EDT Latitude Longitude Course Direction KTS MPH feet Rate Location/Type
01:10PM 42.7297 -73.8081 220° Southwest 139 160 1,200  Level Boston Center
01:12PM 42.6994 -73.9119 248° West 223 257 5,200 2,400 Climbing Boston Center
01:13PM 42.7334 -74.1641 270° West  Level FlightAware Approximate
01:13PM 42.7122 -74.0281 279° West 254 292 8,700  Level Boston Center
01:14PM 42.7333 -74.2855 270° West  Level FlightAware Approximate
01:15PM 42.6790 -74.3758 220° Southwest  Level FlightAware Approximate
01:15PM 42.7272 -74.1444 280° West 268 308 10,800  Level Boston Center
01:16PM 42.6103 -74.4530 220° Southwest  Level FlightAware Approximate
01:16PM 42.7400 -74.2747 278° West 312 359 13,000  Level Boston Center
01:17PM 42.6797 -74.3861 234° Southwest 317 365 14,700 1,500 Climbing Boston Center
01:18PM 42.6117 -74.4628 220° Southwest 346 398 16,000 600 Climbing Boston Center
01:19PM 42.5264 -74.5614 220° Southwest 371 427 16,000  Level Boston Center
01:20PM 42.4583 -74.6381 220° Southwest 371 427 16,000  Level Boston Center
01:21PM 42.3708 -74.7361 220° Southwest 371 427 16,000  Level Boston Center
01:23PM 42.1981 -74.9333 220° Southwest 350 403 16,000  Level New York Center
01:24PM 42.1056 -75.0197 215° Southwest 369 425 16,000  Level New York Center
01:25PM 42.0197 -75.0922 212° Southwest 374 430 16,000  Level New York Center
01:26PM 41.9294 -75.1644 211° Southwest 379 436 16,000  Level New York Center
01:27PM 41.8522 -75.2261 211° Southwest 379 436 16,000  Level New York Center
01:28PM 41.7642 -75.2981 211° Southwest 379 436 16,000  Level New York Center
01:29PM 41.6675 -75.3750 211° Southwest 379 436 16,000 -300 Level New York Center
01:30PM 41.5794 -75.4464 211° Southwest 379 436 15,500 -1,620 Descending New York Center
01:31PM 41.4933 -75.5153 211° Southwest 379 436 12,900 -1,740 Descending New York Center
01:32PM 41.4181 -75.5764 211° Southwest 373 429 12,000 -480 Descending New York Center
01:33PM 41.3256 -75.6469 210° Southwest 361 415 12,000  Level New York Center
01:34PM 41.2364 -75.6875 199° South 343 395 12,000  Level New York Center
01:35PM 41.1417 -75.6614 168° South 339 390 12,000  Level New York Center
01:36PM 41.0472 -75.6297 166° South 353 406 12,000  Level New York Center
01:37PM 40.9506 -75.5981 166° South 359 413 12,000  Level New York Center
01:38PM 40.8539 -75.5667 166° South 354 407 12,000 -120 Level New York Center
01:39PM 40.7611 -75.5381 167° South 354 407 11,800 -660 Descending New York Center
01:40PM 40.6667 -75.5042 165° South 354 407 10,700 -900 Descending New York Center
01:41PM 40.5844 -75.4767 166° South 354 407 10,000 -360 Descending New York Center
01:42PM 40.4961 -75.4489 167° South 347 399 10,000  Level New York Center
01:43PM 40.4142 -75.4106 160° South 311 358 10,000 -540 Level New York Center
01:44PM 40.3447 -75.3706 156° South 298 343 9,000 -1,020 Descending New York Center
01:45PM 40.2628 -75.3350 162° South 293 337 8,000 -900 Descending New York Center
01:46PM 40.1867 -75.3653 197° South 274 315 7,300 -900 Descending New York Center
01:47PM 40.1164 -75.4014 201° Southwest 284 327 6,200 -660 Descending New York Center
01:48PM 40.0558 -75.4544 214° Southwest 279 321 6,000 -120 Descending New York Center
01:49PM 39.9953 -75.5100 215° Southwest 274 315 6,000 -480 Level New York Center
01:50PM 39.9364 -75.5222 189° South 234 269 5,100 -1,560 Descending New York Center
01:51PM 39.8756 -75.4856 155° Southeast 222 255 3,000 -2,100 Descending New York Center